STARLINK-5671, 55339

Orbit data source: Space-Track

STARLINK-5671, 55339 is a payload satellite owned by SpaceX/Seattle (US) in LEO that was launched on Thu, 26 Jan 2023 UTC via an FALCON 9 launch vehicle from the Air Force Eastern Test Range (AFETR). Payload-class satellites include a variety of spacecraft equipped with specific instruments for various scientific and technological missions. These include communications satellites like Starlink; space stations such as the ISS; scientific satellites like the Hubble; Earth observation satellites from companies like Planet Labs, Umbra, and HawkEye 360; GPS; miniature CubeSats for education and research; and military/defense satellites.

Loading next visibility...
Identifier
55339, 2023-013J
Orbit
LEO
Country
Flag of USUS
Related business
Manufacturer
SpaceX/Seattle
Mission
Operational Commercial Communications
Bus & Motor
STARLINK, Unknown motor
Mass
305 kg wet, ~290 kg dry
Launch date (UTC)
2023-01-26 (3 years ago)
Launch vehicle
FALCON 9
Launch site
Air Force Eastern Test Range (AFETR)
Object type
Payload
Rocket body
Debris
Shape & HBR
Box + 1 Pan, 10.1 m
Radar Cross Section
13.562 m², Large (>1 m²)

Expand to show TLE details & history
Last TLE update: 1 day ago

TLE from 1 day ago
0 STARLINK-5671
1 55339U 23013J   25348.44148025 -.00000579  00000-0 -27770-4 0  9994
2 55339  43.0084  43.7408 0001418 284.1129  75.9556 15.02525567158888
Epoch: 2025-12-14T10:35Z
TLE epoch observation values (Epoch: 2025-12-14T10:35:43.893Z)
Latitude
-0.00001°
Longitude
161.45355°
Altitude
558.652 km
Speed
7.584 km/s
True Right ascension
02h 54m 57s
True Declination
0° 00' 00"
Sunlit
Object was in full shadow at epoch
Visualization orbit readout
Latitude
Unknown
Longitude
Unknown
Altitude
Unknown
Speed
Unknown
Apparent Right ascension
Unknown
Apparent Declination
Unknown
Sunlit
N/A
Visualization observer readout
Local Sidereal Time
15:09:06
Azimuth
Unknown
Elevation
Unknown
Doppler factor
Unknown
Orbital elements
Apogee altitude
562.018 km
Perigee altitude
560.05 km
Semi-major axis
6,939.171 km
Eccentricity
0.00014
Inclination
43.0084°
RAAN
43.7408°
Arg. of periapsis
284.1129°
True anomaly
75.97136°
Mean anomaly
75.9556°
Eccentric anomaly
75.96348°
Mean motion
3.75476 °/min
Orbital period
95.88 mins
BSTAR
-0.00002777
Loading maneuver chart data...
Computing Atmospheric mass density...
Loading historical data...
Loading historical data...
Loading historical data...
Loading historical data...
Loading historical data...
Loading historical data...
Loading historical data...

Documentation

Showing up to 5 results
|